Total_Precipitation_Accumulation
1.73 2.20 2.85 3.53 4.34 5.45 6.11 6.26 6.01 5.32 4.83 4.42 4.17 3.90 3.65 3.39 2.91 2.53 2.29 2.18 2.06 2.02 2.29 2.11 2.14 1.97 2.01 2.07 2.12 2.36 2.47 2.27 2.43 2.78 2.60 2.29 2.04 2.03 1.95 1.87 1.97 1.98 2.04
1.60 2.21 2.98 3.78 4.48 5.02 5.37 5.47 5.09 4.34 3.86 3.63 3.57 3.30 3.12 2.81 2.60 2.37 2.33 2.02 1.95 1.99 1.92 2.09 1.93 1.84 2.06 2.05 2.12 2.33 2.33 2.10 2.24 2.68 2.84 2.57 2.49 2.07 1.53 1.74 1.86 1.91 2.16
1.81 2.56 3.37 4.14 4.47 4.50 4.29 3.98 3.80 3.41 3.30 3.27 3.08 2.87 2.83 2.57 2.41 2.21 2.12 1.83 1.66 1.67 1.74 1.76 1.71 1.81 1.72 1.92 2.07 2.18 2.40 2.39 2.15 2.14 2.56 2.53 2.47 2.24 1.74 1.51 1.61 1.89 2.17
1.95 2.64 3.18 3.43 3.58 3.51 3.22 3.03 2.95 2.88 2.83 2.75 2.65 2.36 2.24 2.23 2.10 2.01 2.02 1.90 1.69 1.66 1.66 1.64 1.76 1.78 1.65 1.93 1.69 1.84 2.19 2.39 2.20 2.17 2.07 2.12 2.28 2.33 2.16 1.85 1.58 1.73 1.88
1.52 1.72 1.93 2.09 2.23 2.26 2.42 2.49 2.61 2.73 2.65 2.59 2.58 2.50 2.22 2.19 2.16 2.15 2.25 2.11 1.89 1.69 1.49 1.60 1.79 1.84 1.71 1.75 1.76 1.99 2.01 2.08 2.11 2.08 2.03 2.18 2.23 2.05 2.09 2.09 1.93 1.82 1.55
0.97 1.06 1.15 1.28 1.51 1.57 1.79 2.00 2.12 2.26 2.44 2.47 2.32 2.24 2.19 2.24 2.29 2.23 2.05 1.86 1.72 1.62 1.50 1.61 1.90 1.90 1.86 1.81 1.79 1.82 1.87 2.05 2.17 2.10 1.98 2.08 2.19 2.17 2.26 2.04 1.98 2.01 1.76
0.81 0.94 1.05 1.15 1.36 1.32 1.41 1.63 1.69 1.70 1.86 1.91 1.88 1.95 2.10 2.16 2.05 1.94 1.85 1.69 1.44 1.42 1.50 1.59 1.82 1.84 1.86 1.78 1.95 1.98 1.90 2.04 2.10 2.06 2.02 1.95 1.90 2.03 2.21 2.24 2.06 2.03 1.94
0.72 0.81 0.80 0.89 1.02 1.02 1.17 1.27 1.35 1.41 1.49 1.60 1.73 1.70 1.84 1.86 1.77 1.86 1.73 1.59 1.38 1.27 1.32 1.45 1.52 1.60 1.67 1.65 2.05 1.94 1.97 2.06 1.96 1.85 2.19 2.08 1.81 1.98 2.12 2.32 2.53 2.38 2.24
0.58 0.64 0.58 0.59 0.73 0.87 0.99 1.07 1.14 1.26 1.30 1.45 1.53 1.51 1.61 1.71 1.77 1.78 1.66 1.49 1.50 1.34 1.38 1.45 1.66 1.80 1.85 1.89 2.13 2.05 2.01 2.14 1.97 1.96 2.14 2.08 2.00 1.98 1.95 2.30 2.63 2.78 2.58
0.50 0.54 0.54 0.49 0.58 0.76 1.02 1.08 1.09 1.21 1.23 1.33 1.35 1.23 1.40 1.55 1.70 1.67 1.58 1.53 1.55 1.50 1.62 1.69 1.84 1.96 1.91 1.91 2.08 2.03 2.11 2.19 2.09 2.09 2.14 2.08 2.05 2.13 2.06 2.19 2.44 2.66 2.84
0.55 0.53 0.52 0.51 0.50 0.63 0.86 0.92 1.06 1.17 1.22 1.29 1.39 1.44 1.45 1.40 1.54 1.58 1.56 1.60 1.64 1.61 1.69 1.79 1.92 1.94 1.99 2.09 2.18 2.00 2.08 2.19 2.35 2.25 2.23 2.28 2.40 2.37 2.28 2.37 2.43 2.57 2.83
0.45 0.48 0.52 0.57 0.55 0.57 0.69 0.84 1.01 1.17 1.23 1.29 1.43 1.52 1.68 1.63 1.57 1.55 1.60 1.67 1.81 1.89 1.85 1.92 1.97 1.84 1.88 2.08 2.14 2.11 2.12 2.15 2.18 2.37 2.60 2.53 2.58 2.53 2.38 2.47 2.43 2.49 2.78
0.56 0.56 0.61 0.65 0.72 0.71 0.73 0.84 1.02 1.22 1.34 1.42 1.51 1.66 1.76 1.65 1.57 1.67 1.76 1.82 1.97 2.13 2.21 2.20 2.03 1.94 1.93 1.99 2.07 2.17 2.17 2.18 2.25 2.41 2.49 2.52 2.70 2.57 2.47 2.42 2.40 2.48 2.64
0.67 0.62 0.61 0.65 0.77 0.97 0.97 1.02 1.28 1.33 1.36 1.56 1.75 1.84 1.87 1.79 1.73 1.81 1.92 1.94 2.00 2.15 2.29 2.25 2.18 2.13 2.01 1.90 1.87 1.91 1.98 2.14 2.30 2.35 2.28 2.37 2.60 2.65 2.64 2.47 2.45 2.58 2.68
0.68 0.61 0.60 0.67 0.77 0.92 1.04 1.15 1.22 1.41 1.49 1.71 1.89 1.96 2.05 2.06 2.06 2.15 2.16 2.08 2.10 2.11 2.25 2.30 2.33 2.29 2.11 1.86 1.89 2.02 2.01 2.18 2.20 2.13 2.03 2.03 2.27 2.49 2.57 2.32 2.33 2.47 2.49
0.70 0.75 0.78 0.79 0.81 0.87 0.97 1.08 1.15 1.37 1.60 1.90 2.19 2.23 2.28 2.26 2.35 2.49 2.56 2.45 2.42 2.52 2.55 2.46 2.39 2.29 1.93 2.04 2.08 2.07 2.06 2.17 2.19 2.13 2.03 1.92 1.91 1.92 2.06 2.15 2.28 2.43 2.40
0.84 0.91 1.02 0.99 0.95 0.97 1.00 1.10 1.23 1.42 1.72 2.01 2.26 2.41 2.47 2.51 2.61 2.70 2.71 2.67 2.73 2.90 2.89 2.75 2.56 2.38 2.30 2.23 2.00 1.95 1.82 1.85 1.90 1.97 1.95 1.68 1.53 1.64 1.56 1.75 1.92 2.04 2.12
0.85 0.92 1.09 1.13 1.10 1.11 1.17 1.31 1.50 1.76 2.05 2.25 2.39 2.50 2.53 2.57 2.62 2.69 2.59 2.63 2.77 2.80 2.82 2.73 2.58 2.45 2.36 2.24 1.92 1.86 1.61 1.60 1.62 1.67 1.68 1.65 1.58 1.57 1.64 1.65 1.62 1.59 1.66
0.93 1.00 1.12 1.24 1.33 1.38 1.44 1.52 1.68 1.90 2.15 2.34 2.36 2.34 2.44 2.55 2.60 2.63 2.64 2.66 2.67 2.53 2.42 2.35 2.34 2.30 2.33 2.30 1.99 1.81 1.57 1.63 1.63 1.64 1.66 1.69 1.61 1.76 1.69 1.62 1.63 1.64 1.65
1.04 1.13 1.15 1.20 1.34 1.44 1.47 1.58 1.78 2.00 2.21 2.37 2.40 2.38 2.50 2.60 2.64 2.70 2.72 2.63 2.52 2.45 2.37 2.23 2.22 2.19 2.17 2.23 1.88 1.71 1.55 1.63 1.65 1.70 1.70 1.69 1.59 1.62 1.52 1.45 1.56 1.55 1.58
1.16 1.17 1.20 1.23 1.28 1.40 1.50 1.64 1.77 1.91 2.06 2.22 2.36 2.52 2.69 2.76 2.76 2.75 2.67 2.57 2.46 2.47 2.44 2.32 2.22 2.18 2.12 2.15 1.88 1.70 1.48 1.63 1.84 1.84 1.76 1.74 1.68 1.38 1.33 1.31 1.32 1.35 1.43
1.18 1.23 1.26 1.39 1.46 1.52 1.56 1.67 1.68 1.77 1.95 2.01 2.15 2.24 2.39 2.48 2.50 2.58 2.52 2.53 2.48 2.38 2.29 2.18 2.06 2.00 2.02 1.93 1.83 1.66 1.51 1.57 1.72 1.80 1.80 1.82 1.70 1.39 1.26 1.14 1.12 1.15 1.11
1.39 1.40 1.33 1.37 1.44 1.53 1.63 1.72 1.72 1.68 1.74 1.84 1.99 2.14 2.21 2.36 2.44 2.49 2.45 2.35 2.27 2.14 2.01 1.92 1.85 1.87 1.92 1.90 1.73 1.54 1.45 1.48 1.51 1.63 1.79 1.68 1.53 1.32 1.11 1.07 1.05 1.01 0.94
1.21 1.31 1.29 1.32 1.47 1.45 1.50 1.62 1.69 1.67 1.72 1.81 1.86 1.99 2.07 2.16 2.36 2.41 2.27 2.10 1.95 1.86 1.84 1.81 1.83 1.89 1.93 1.85 1.67 1.46 1.32 1.36 1.42 1.47 1.54 1.53 1.49 1.39 1.23 1.12 1.02 0.96 1.01
1.05 1.09 1.12 1.17 1.24 1.25 1.28 1.37 1.49 1.56 1.55 1.55 1.55 1.59 1.74 1.89 2.04 2.08 2.00 1.82 1.72 1.81 1.84 1.80 1.78 1.71 1.65 1.73 1.69 1.49 1.39 1.40 1.44 1.38 1.39 1.42 1.51 1.55 1.52 1.46 1.36 1.30 1.30
0.89 0.95 1.00 1.01 1.07 1.12 1.21 1.30 1.49 1.63 1.66 1.60 1.51 1.46 1.45 1.52 1.71 1.91 1.98 1.85 1.63 1.67 1.62 1.56 1.50 1.46 1.43 1.45 1.46 1.40 1.35 1.39 1.41 1.29 1.37 1.51 1.59 1.65 1.67 1.67 1.57 1.44 1.32